DW9417 Weather Reports


Display with metric or nautical units.
time (UTC)temp
F
wind
direction
speed
MPH
gust
MPH
rain 1hr
in
rain 24hr
in
rain mn
in
humidity
%
barometer
mb
20260504044602 64 109 3.0 9.0 0.00 0.01 0.01 62 1027.0
20260504043054 63 76 5.0 9.0 0.00 0.01 0.01 62 1027.2
20260504041552 62 80 3.0 12.0 0.00 0.01 0.01 66 1027.5
20260504040051 62 100 4.0 9.0 0.00 0.01 0.01 66 1027.8
20260504034606 62 113 5.0 11.0 0.00 0.01 0.01 67 1028.0
20260504033049 62 60 4.0 10.0 0.00 0.01 0.01 66 1028.3
20260504031548 60 58 5.0 11.0 0.00 0.01 0.01 70 1028.5
20260504030046 61 49 5.0 11.0 0.00 0.01 0.01 69 1028.6
20260504024543 60 58 7.0 13.0 0.00 0.01 0.01 70 1028.7
20260504023042 60 56 4.0 11.0 0.00 0.01 0.01 71 1029.0
20260504021541 60 104 5.0 11.0 0.00 0.01 0.01 72 1028.9
20260504020039 59 42 6.0 11.0 0.00 0.01 0.01 73 1029.1
20260504014550 59 92 7.0 12.0 0.00 0.01 0.01 74 1029.0
20260504013035 58 99 8.0 12.0 0.00 0.01 0.01 76 1029.0
20260504011531 57 53 4.0 10.0 0.00 0.01 0.01 80 1029.1
20260504010026 55 45 5.0 9.0 0.00 0.01 0.01 84 1029.3
20260504004523 52 65 1.0 3.0 0.00 0.01 0.01 92 1029.4
20260504003018 50 221 0.0 0.0 0.00 0.01 0.01 93 1029.3
20260504001514 49 221 0.0 0.0 0.00 0.01 0.01 93 1029.2
20260504000009 47 221 0.0 0.0 0.00 0.01 0.01 92 1029.1
20260503234514 46 219 0.0 0.0 0.00 0.01 0.01 92 1029.0
20260503233006 45 219 0.0 0.0 0.00 0.01 0.01 92 1028.8
20260503231506 43 221 0.0 0.0 0.00 0.01 0.01 91 1028.6
20260503230003 43 221 0.0 0.0 0.00 0.01 0.01 90 1028.4
20260503224502 44 221 0.0 0.0 0.00 0.01 0.01 90 1028.4
20260503223100 44 221 0.0 0.0 0.01 0.01 0.01 90 1028.4
20260503221558 43 221 0.0 0.0 0.01 0.01 0.01 89 1028.3
20260503220055 44 221 0.0 0.0 0.01 0.01 0.01 88 1028.1
20260503214552 44 221 0.0 0.0 0.01 0.01 0.01 89 1028.0
20260503213101 44 221 0.0 0.0 0.00 0.00 0.00 89 1028.0
20260503211550 45 221 0.0 0.0 0.00 0.00 0.00 87 1027.9
20260503210100 46 221 0.0 0.0 0.00 0.00 0.00 87 1027.8
20260503204547 46 221 0.0 0.0 0.00 0.00 0.00 88 1027.9
20260503203052 46 221 0.0 0.0 0.00 0.00 0.00 88 1027.7
20260503201546 46 222 0.0 0.0 0.00 0.00 0.00 87 1027.7
20260503200049 46 222 0.0 0.0 0.00 0.00 0.00 86 1027.6
20260503194544 46 222 0.0 0.0 0.00 0.00 0.00 86 1027.6
20260503193049 46 222 0.0 0.0 0.00 0.00 0.00 87 1027.6
20260503191542 46 222 0.0 0.0 0.00 0.00 0.00 85 1027.8
20260503190047 47 222 1.0 3.0 0.00 0.00 0.00 84 1027.7
20260503184554 46 222 2.0 5.0 0.00 0.00 0.00 85 1027.9
20260503183053 46 222 0.0 4.0 0.00 0.00 0.00 85 1027.9
20260503181538 46 121 0.0 0.0 0.00 0.00 0.00 84 1027.6
20260503180036 46 121 0.0 0.0 0.00 0.00 0.00 85 1027.6
20260503174535 46 121 0.0 0.0 0.00 0.00 0.00 86 1027.6
20260503173033 46 121 0.0 0.0 0.00 0.00 0.00 85 1027.3
20260503171531 45 122 0.0 0.0 0.00 0.00 0.00 85 1027.4
20260503081615 66 115 5.0 10.0 0.00 0.00 0.00 50 1024.7
20260503080103 66 150 4.0 8.0 0.00 0.00 0.00 50 1024.7
20260503071544 66 107 5.0 10.0 0.00 0.00 0.00 51 1024.9